Location: Radford
(37.1320°N, 80.5770°W)
Time: 04:49:44
(UTC-05:00)

Daily predictions for brighter satellites

Satellite Brightness Start Highest point End
(mag) Time Altitude Azimuth Time Altitude Azimuth Time Altitude Azimuth
CZ-3 R/B 4.3 01:27:30 10° WSW 02:33:08 59° SE 02:43:39 10° E
SJ 16-02 3.1 04:23:33 30° ENE 04:23:33 30° ENE 04:26:16 10° NNE
Cosmos 1980 Rocket 2.5 04:27:27 64° E 04:27:27 64° E 04:32:52 10° NNE
PAYLOAD B 4.4 04:26:56 10° NNE 04:32:25 66° ESE 04:33:02 61° SE
Centaur D-1A AC-31 3.0 04:32:42 35° S 04:32:51 35° S 04:43:39 10° ESE
ATLAS 5 CENTAUR R/B 3.3 04:35:41 26° SE 04:36:42 29° ESE 04:40:47 10° NE
Cosmos 158 Rocket 4.1 04:49:27 23° N 04:52:40 70° ENE 04:57:50 10° SSE
Cosmos 1933 3.9 04:53:51 54° ESE 04:54:10 56° E 04:58:09 10° NNE
Cosmos 1697 Rocket 3.6 04:58:27 33° NNW 04:58:27 33° NNW 05:02:14 10° N
Cosmos 1707 Rocket 4.1 04:59:16 50° N 04:59:16 50° N 05:02:36 10° N
Meteor 1-31 Rocket 4.5 04:58:25 10° N 05:00:03 24° N 05:00:03 24° N
Hubble Space Telescope 2.5 05:03:15 23° SSE 05:03:15 23° SSE 05:06:09 10° ESE
SL-16 R/B 3.4 04:58:09 10° S 05:03:24 40° ESE 05:08:40 10° NE
BREEZE-M DEB (TANK) 4.3 05:02:53 17° N 05:04:14 21° NE 05:09:11 10° E
IDEFIX/ARIANE 42P 3.6 05:02:11 10° NNE 05:07:11 45° E 05:12:08 10° S
Cosmos 1934 Rocket 3.9 05:03:18 17° SSW 05:08:14 66° W 05:14:36 10° N
Cosmos 1048 Rocket 4.3 05:03:19 10° NNW 05:08:26 63° ENE 05:13:30 10° SSE
CENTAUR R/B 4.2 05:13:04 24° SW 05:13:04 24° SW 05:17:24 10° SSW
COSMOS 2455 3.3 05:04:43 10° NNW 05:10:41 60° ENE 05:16:37 10° SE
Cosmos 372 Rocket 3.8 05:12:16 47° SW 05:13:39 68° WNW 05:18:46 10° NNE
Milstar 3 Cent rocket 4.5 05:09:58 10° SSW 05:13:59 19° SE 05:19:34 10° ESE
Aureole 1 Rocket 4.1 05:11:02 10° NNW 05:17:42 45° W 05:22:51 10° S
Okean O Rocket 2.8 05:13:55 10° N 05:16:24 28° NNW 05:16:24 28° NNW
USA 116 4.2 05:16:54 10° SSE 05:21:24 83° ENE 05:26:27 10° N
CZ-4B R/B 4.3 05:17:25 10° N 05:21:18 46° WNW 05:21:18 46° WNW
BREEZE-M DEB (TANK) 4.4 05:20:57 36° WSW 05:22:35 45° SSW 05:37:33 10° SSE
Cosmos 1125 Rocket 3.5 05:21:16 36° SW 05:23:07 56° WNW 05:28:15 10° N
Cosmos 2123 Rocket 3.9 05:18:02 10° NNW 05:24:12 65° W 05:30:23 10° S
SKYMED 2 4.3 05:20:38 10° SSE 05:24:51 54° ENE 05:29:05 10° N
USA 215 4.1 05:22:55 10° S 05:28:16 26° WSW 05:28:44 26° WSW
CZ-4B R/B 3.5 05:26:28 10° N 05:31:36 43° WNW 05:34:57 21° SW
Lacrosse 5 rocket 2.1 05:38:16 29° SW 05:38:16 29° SW 05:41:40 10° S
OAO 3 Rocket 4.4 05:37:18 24° SW 05:38:36 27° SSW 05:42:45 10° SSE
Cosmos 2242 Rocket 3.5 05:34:53 10° SSW 05:39:27 73° W 05:44:02 10° N
Cosmos 1153 Rocket 4.4 05:38:21 10° S 05:44:28 76° W 05:50:40 10° N
SEDSat Delta rocket 3.9 05:43:11 24° WSW 05:45:33 39° S 05:49:42 10° ESE
Cosmos 2263 Rocket 3.1 05:40:43 10° NNW 05:46:14 50° ENE 05:51:44 10° SE
Cosmos 405 Rocket 2.8 05:45:32 10° SSW 05:49:24 52° W 05:53:13 10° N
CZ-2C R/B 2.6 05:46:30 10° NNE 05:51:39 85° ESE 05:56:50 10° SSW
Cosmos 1633 3.5 05:48:09 10° N 05:51:43 51° E 05:55:16 10° SSE
Cosmos 1461 4.2 05:50:50 10° S 05:54:52 43° ESE 05:59:07 10° NE
BREEZE-M DEB (TANK) 1.9 05:54:26 28° W 05:55:26 41° SW 05:57:29 10° SSE
Radarsat Rocket 4.0 05:52:27 10° NNE 05:58:20 85° WNW 06:04:39 10° SSW
Cosmos 1908 Rocket 4.3 05:55:54 10° N 06:00:14 57° E 06:04:29 10° SSE
Cosmos 2322 Rocket 2.2 05:55:15 10° SSW 06:00:52 66° WNW 06:06:33 10° NNE
SJ 16-02 2.8 06:00:36 17° WNW 06:00:54 17° WNW 06:03:50 10° NNW
Cosmos 494 Rocket 4.1 05:59:02 10° NNW 06:04:10 76° ENE 06:09:16 10° SSE
Cosmos 1733 Rocket 3.2 06:00:02 10° NNW 06:04:15 47° W 06:08:29 10° SSW
Cosmos 1862 Rocket 3.8 06:00:18 10° SSW 06:04:26 44° W 06:08:39 10° N
DELTA 2 R/B(2) 3.6 06:04:37 28° WNW 06:05:23 56° N 06:07:55 10° ENE
Cosmos 2360 Rocket 2.9 06:03:36 10° S 06:09:09 59° ESE 06:14:44 10° NNE
Cosmos 1269 Rocket 4.4 06:05:54 10° NNW 06:10:52 42° WSW 06:15:48 10° S
EO 1 Del DPAF 3.2 06:07:44 10° SSE 06:11:34 87° WSW 06:15:24 10° NNW
Cosmos 1980 Rocket 3.6 06:09:17 14° W 06:11:43 18° NW 06:15:30 10° NNW
Meteor 1-25 Rocket 4.2 06:06:50 10° NNW 06:12:35 78° W 06:18:22 10° S
COSMO-SKYMED 1 3.0 06:08:53 10° SSW 06:12:57 40° W 06:17:02 10° NNW
Landsat 4 3.7 06:11:53 10° S 06:15:31 56° WSW 06:19:12 10° NNW
Okean-O 3.0 06:12:21 10° N 06:16:31 41° WNW 06:20:39 10° SW
CZ-3 R/B 3.0 06:03:27 13° W 06:17:08 39° SSW 06:22:17 10° SE
Okean 1-7 3.7 06:13:53 10° S 06:18:07 61° E 06:22:24 10° NNE
ATLAS 5 CENTAUR R/B 2.7 06:17:20 10° WSW 06:21:16 28° NW 06:25:32 10° NNE
Cosmos 405 4.5 06:21:43 10° NW 06:24:10 18° W 06:26:36 10° SW
Cosmos 2100 Rocket 4.0 06:18:56 10° SSW 06:24:57 57° W 06:31:01 10° N
